Regional Weather Roundup
Issued by NWS

Home | Current Version | Previous Version | Text Only | Print | Product List | Glossary Off
Versions: 1 2 3 4 5 6 7 8 9 10 11 12 13 14 15 16 17 18 19 20 21 22 23 24 25 26 27 28 29 30 31 32 33 34 35 36 37 38 39 40 41 42 43 44 45 46 47 48 49 50

000
ASUS43 KOAX 032002
RWRNE
WEATHER ROUNDUP FOR NEBRASKA
NATIONAL WEATHER SERVICE OMAHA NE
300 PM CDT WED JUN 03 2015

NOTES: SATELLITE DATA IS BEING USED TO AUGMENT CLOUD COVER ABOVE
       12000 FEET.
       "FAIR" INDICATES FEW OR NO CLOUDS BELOW 12,000 FEET WITH NO
       SIGNIFICANT WEATHER AND/OR OBSTRUCTIONS TO VISIBILITY.

  * THESE STATIONS DO NOT REPORT WEATHER SUCH AS RAIN...SNOW OR FOG.

NEZ001>004-019>022-054>056-032100-
NEBRASKA PANHANDLE

CITY           SKY/WX    TMP DP  RH WIND       PRES   REMARKS
SCOTTSBLUFF    SUNNY     76  54  46 E7G16     29.98F
ALLIANCE       MOSUNNY   74  58  57 E12       29.99F
CHADRON        SUNNY     72  58  61 NE10      29.98F
KIMBALL          N/A    N/A N/A N/A MISG        N/A
SIDNEY           N/A    N/A N/A N/A MISG      30.02F
$$

NEZ057>060-069>072-079>082-032100-
SOUTHWEST NEBRASKA

CITY           SKY/WX    TMP DP  RH WIND       PRES   REMARKS
NORTH PLATTE   PTSUNNY   76  58  53 E9        29.97S
IMPERIAL       PTSUNNY   75  58  55 NE8       29.96F
LEXINGTON      MOSUNNY   76  63  64 N6        29.95F
MCCOOK         PTSUNNY   82  60  47 E14       29.92F
$$

NEZ005>010-023>029-035>040-094-032100-
NORTH CENTRAL NEBRASKA

CITY           SKY/WX    TMP DP  RH WIND       PRES   REMARKS
VALENTINE      MOSUNNY   73  57  57 N5        29.99S
AINSWORTH      SUNNY     73  59  60 N7        29.98S
BROKEN BOW     MOSUNNY   79  61  53 VRB6      29.95F
ORD            MOSUNNY   79  61  53 MISG      29.92F
$$

NEZ041-046>049-061>064-073>077-083>087-032100-
SOUTH CENTRAL NEBRASKA

CITY           SKY/WX    TMP DP  RH WIND       PRES   REMARKS
GRAND ISLAND   MOSUNNY   77  61  57 VRB3      29.94F
HASTINGS       MOSUNNY   77  64  64 VRB6      29.93F
KEARNEY *      PTSUNNY   79  61  53 E3        29.93F
$$

NEZ011>018-030>034-042>045-032100-
NORTHEAST NEBRASKA

CITY           SKY/WX    TMP DP  RH WIND       PRES   REMARKS
NORFOLK        MOSUNNY   80  62  54 CALM      29.91F
COLUMBUS *     CLOUDY    75  61  60 CALM      29.93F
FREMONT        MOSUNNY   78  61  55 CALM      29.92S
TEKAMAH        MOSUNNY   82  62  50 W6        29.89F
$$

NEZ050>053-065>068-078-088>093-032100-
SOUTHEAST NEBRASKA

CITY           SKY/WX    TMP DP  RH WIND       PRES   REMARKS
LINCOLN        MOSUNNY   77  64  64 SW5       29.93S
OMAHA EPPLEY   PTSUNNY   77  63  61 CALM      29.90F
FALLS CITY     CLOUDY    71  63  75 VRB3      29.88S
PLATTSMOUTH    CLOUDY    73  63  70 CALM      29.93S
$$

NEZ044-045-051>053-067-032100-
OMAHA AREA

CITY           SKY/WX    TMP DP  RH WIND       PRES   REMARKS
OMAHA EPPLEY   PTSUNNY   77  63  61 CALM      29.90F
FREMONT        MOSUNNY   78  61  55 CALM      29.92S
PLATTSMOUTH    CLOUDY    73  63  70 CALM      29.93S
$$


USA.gov is the U.S. government's official web portal to all federal, state and local government web resources and services.